• In Deutschland
  • Länderverzeichnis
  • Für 7 Tage
  • Wassertemperatur
  • Satellitenkarten
  • Wetterkarte
  • Widgets
  • user-avatar
    Anmelden

    Stündliche Wetter Akhaltsikhe

    Heute, 26 Februar, Montag

    Zeit Temperatur Niederschläge Wind Luftdruck Luftfeuchtigkeit
    00:00 +3°C° 0,1 mm 1 m/S 641 mmHg 79%
    01:00 +2°C° 0,5 mm 1 m/S 641 mmHg 82%
    02:00 +2°C° 0,5 mm 1 m/S 642 mmHg 85%
    03:00 +2°C° 0,5 mm 1 m/S 642 mmHg 88%
    04:00 +2°C° 0,8 mm 1 m/S 642 mmHg 90%
    05:00 +2°C° 0,8 mm 1 m/S 642 mmHg 92%
    06:00 +1°C° 0,8 mm 1 m/S 643 mmHg 94%
    07:00 +2°C° 0,3 mm 1 m/S 643 mmHg 93%
    08:00 +2°C° 0,3 mm 1 m/S 643 mmHg 92%
    09:00 +2°C° 0,3 mm 1 m/S 643 mmHg 91%
    10:00 +2°C° 0,1 mm 1 m/S 643 mmHg 89%
    11:00 +3°C° 0,1 mm 1 m/S 644 mmHg 87%
    12:00 +3°C° 0,1 mm 1 m/S 644 mmHg 85%
    13:00 +4°C° 0 mm 1 m/S 643 mmHg 83%
    14:00 +4°C° 0 mm 1 m/S 643 mmHg 81%
    15:00 +4°C° 0 mm 1 m/S 643 mmHg 80%
    16:00 +3°C° 0 mm 1 m/S 643 mmHg 82%
    17:00 +2°C° 0 mm 1 m/S 643 mmHg 84%
    18:00 +1°C° 0 mm 1 m/S 642 mmHg 86%
    19:00 +1°C° 0 mm 1 m/S 642 mmHg 85%
    20:00 +1°C° 0 mm 1 m/S 642 mmHg 83%
    21:00 -2°C° 0 mm 2 m/S 643 mmHg 82%
    22:00 -2°C° 0 mm 2 m/S 642 mmHg 81%
    23:00 -2°C° 0 mm 2 m/S 642 mmHg 80%

    Morgen, 27 Februar, Dienstag

    Zeit Temperatur Niederschläge Wind Luftdruck Luftfeuchtigkeit
    00:00 -2°C° 0 mm 2 m/S 642 mmHg 79%
    01:00 -2°C° 0 mm 3 m/S 642 mmHg 78%
    02:00 -2°C° 0 mm 3 m/S 642 mmHg 78%
    03:00 -2°C° 0 mm 3 m/S 642 mmHg 78%
    04:00 -2°C° 0 mm 3 m/S 642 mmHg 78%
    05:00 -1°C° 0 mm 3 m/S 642 mmHg 78%
    06:00 -1°C° 0 mm 3 m/S 642 mmHg 78%
    07:00 0°C° 0 mm 3 m/S 642 mmHg 77%
    08:00 +1°C° 0 mm 3 m/S 642 mmHg 75%
    09:00 +2°C° 0 mm 3 m/S 643 mmHg 73%
    10:00 +3°C° 0 mm 4 m/S 643 mmHg 72%
    11:00 +4°C° 0 mm 4 m/S 643 mmHg 71%
    12:00 +5°C° 0 mm 4 m/S 643 mmHg 69%
    13:00 +5°C° 0 mm 3 m/S 643 mmHg 70%
    14:00 +5°C° 0 mm 3 m/S 643 mmHg 71%
    15:00 +5°C° 0 mm 3 m/S 643 mmHg 72%
    16:00 +4°C° 0 mm 3 m/S 643 mmHg 74%
    17:00 +5°C° 0 mm 2 m/S 643 mmHg 75%
    18:00 +4°C° 0 mm 2 m/S 643 mmHg 77%
    19:00 +3°C° 0,1 mm 2 m/S 644 mmHg 79%
    20:00 +3°C° 0,1 mm 2 m/S 644 mmHg 80%
    21:00 +2°C° 0,1 mm 2 m/S 644 mmHg 82%
    22:00 +3°C° 0,3 mm 1 m/S 644 mmHg 83%
    23:00 +3°C° 0,3 mm 1 m/S 645 mmHg 84%

    übermorgen, 28 Februar, Mittwoch

    Zeit Temperatur Niederschläge Wind Luftdruck Luftfeuchtigkeit
    00:00 +3°C° 0,3 mm 1 m/S 645 mmHg 86%
    01:00 +3°C° 0,2 mm 1 m/S 645 mmHg 86%
    02:00 +3°C° 0,2 mm 1 m/S 646 mmHg 86%
    03:00 +3°C° 0,2 mm 1 m/S 646 mmHg 87%
    04:00 +2°C° 0 mm 1 m/S 646 mmHg 86%
    05:00 +1°C° 0 mm 1 m/S 646 mmHg 85%
    06:00 +1°C° 0 mm 1 m/S 646 mmHg 85%
    07:00 +2°C° 0 mm 1 m/S 646 mmHg 82%
    08:00 +3°C° 0 mm 1 m/S 647 mmHg 79%
    09:00 +4°C° 0 mm 1 m/S 647 mmHg 76%
    10:00 +6°C° 0 mm 1 m/S 647 mmHg 73%
    11:00 +7°C° 0 mm 1 m/S 647 mmHg 71%
    12:00 +8°C° 0 mm 1 m/S 647 mmHg 68%
    13:00 +8°C° 0 mm 1 m/S 647 mmHg 67%
    14:00 +8°C° 0 mm 1 m/S 647 mmHg 67%
    15:00 +9°C° 0 mm 1 m/S 646 mmHg 66%
    16:00 +7°C° 0 mm 1 m/S 646 mmHg 68%
    17:00 +6°C° 0 mm 1 m/S 646 mmHg 71%
    18:00 +5°C° 0 mm 1 m/S 645 mmHg 74%
    19:00 +3°C° 0 mm 2 m/S 645 mmHg 74%
    20:00 +2°C° 0 mm 2 m/S 645 mmHg 75%
    21:00 +2°C° 0 mm 2 m/S 645 mmHg 75%
    22:00 +1°C° 0 mm 3 m/S 645 mmHg 74%
    23:00 0°C° 0 mm 3 m/S 645 mmHg 74%

    1 März, Donnerstag

    Zeit Temperatur Niederschläge Wind Luftdruck Luftfeuchtigkeit
    00:00 0°C° 0 mm 3 m/S 645 mmHg 73%
    01:00 0°C° 0 mm 3 m/S 644 mmHg 73%
    02:00 0°C° 0 mm 3 m/S 644 mmHg 73%
    03:00 0°C° 0 mm 3 m/S 644 mmHg 73%
    04:00 0°C° 0 mm 3 m/S 644 mmHg 73%
    05:00 0°C° 0 mm 3 m/S 643 mmHg 73%
    06:00 0°C° 0 mm 3 m/S 643 mmHg 73%
    07:00 0°C° 0 mm 3 m/S 643 mmHg 71%
    08:00 +1°C° 0 mm 3 m/S 643 mmHg 70%
    09:00 +1°C° 0 mm 4 m/S 643 mmHg 69%
    10:00 +3°C° 0,1 mm 3 m/S 643 mmHg 69%
    11:00 +3°C° 0,1 mm 3 m/S 643 mmHg 68%
    12:00 +4°C° 0,1 mm 3 m/S 643 mmHg 68%
    13:00 +4°C° 0,2 mm 3 m/S 643 mmHg 70%
    14:00 +4°C° 0,2 mm 3 m/S 643 mmHg 72%
    15:00 +5°C° 0,2 mm 2 m/S 643 mmHg 73%
    16:00 +4°C° 1 mm 2 m/S 643 mmHg 79%
    17:00 +3°C° 1 mm 2 m/S 643 mmHg 85%
    18:00 +1°C° 1 mm 2 m/S 643 mmHg 92%
    19:00 +1°C° 1,1 mm 2 m/S 643 mmHg 93%
    20:00 -1°C° 1,1 mm 2 m/S 643 mmHg 94%
    21:00 -2°C° 1,1 mm 2 m/S 643 mmHg 94%
    22:00 -2°C° 1,6 mm 2 m/S 643 mmHg 95%
    23:00 -3°C° 1,6 mm 2 m/S 643 mmHg 95%

    2 März, Freitag

    Zeit Temperatur Niederschläge Wind Luftdruck Luftfeuchtigkeit
    00:00 -3°C° 1,6 mm 2 m/S 643 mmHg 96%
    01:00 -3°C° 1,1 mm 2 m/S 643 mmHg 96%
    02:00 -4°C° 1,1 mm 2 m/S 643 mmHg 96%
    03:00 -4°C° 1,1 mm 2 m/S 643 mmHg 96%
    04:00 -4°C° 0,6 mm 2 m/S 644 mmHg 96%
    05:00 -5°C° 0,6 mm 2 m/S 644 mmHg 96%
    06:00 -5°C° 0,6 mm 2 m/S 644 mmHg 96%
    07:00 -5°C° 0,3 mm 2 m/S 645 mmHg 95%
    08:00 -5°C° 0,3 mm 2 m/S 645 mmHg 93%
    09:00 -4°C° 0,3 mm 2 m/S 646 mmHg 91%
    10:00 -4°C° 0,1 mm 2 m/S 646 mmHg 89%
    11:00 -3°C° 0,1 mm 2 m/S 646 mmHg 86%
    12:00 -3°C° 0,1 mm 2 m/S 646 mmHg 83%
    13:00 -3°C° 0,1 mm 2 m/S 646 mmHg 82%
    14:00 -2°C° 0,1 mm 2 m/S 646 mmHg 80%
    15:00 -2°C° 0,1 mm 2 m/S 646 mmHg 79%
    16:00 -3°C° 0 mm 2 m/S 646 mmHg 82%
    17:00 -2°C° 0 mm 1 m/S 646 mmHg 85%
    18:00 -3°C° 0 mm 1 m/S 646 mmHg 88%
    19:00 -4°C° 0 mm 1 m/S 646 mmHg 88%
    20:00 -6°C° 0 mm 1 m/S 647 mmHg 88%
    21:00 -7°C° 0 mm 1 m/S 647 mmHg 88%
    22:00 -7°C° 0 mm 1 m/S 647 mmHg 86%
    23:00 -7°C° 0 mm 1 m/S 647 mmHg 84%

    3 März, Samstag

    Zeit Temperatur Niederschläge Wind Luftdruck Luftfeuchtigkeit
    00:00 -9°C° 0 mm 2 m/S 646 mmHg 82%
    01:00 -9°C° 0 mm 2 m/S 646 mmHg 80%
    02:00 -9°C° 0 mm 2 m/S 646 mmHg 79%
    03:00 -9°C° 0 mm 2 m/S 646 mmHg 77%
    04:00 -8°C° 0 mm 2 m/S 646 mmHg 75%
    05:00 -8°C° 0 mm 2 m/S 646 mmHg 73%
    06:00 -8°C° 0 mm 2 m/S 646 mmHg 71%
    07:00 -6°C° 0 mm 2 m/S 646 mmHg 69%
    08:00 -4°C° 0 mm 2 m/S 647 mmHg 68%
    09:00 -2°C° 0 mm 2 m/S 647 mmHg 67%
    10:00 -1°C° 0 mm 2 m/S 647 mmHg 66%
    11:00 +2°C° 0 mm 2 m/S 647 mmHg 66%
    12:00 +3°C° 0 mm 2 m/S 647 mmHg 65%
    13:00 +4°C° 0 mm 2 m/S 647 mmHg 67%
    14:00 +4°C° 0 mm 2 m/S 647 mmHg 68%
    15:00 +5°C° 0 mm 2 m/S 646 mmHg 70%
    16:00 +3°C° 0 mm 2 m/S 646 mmHg 72%
    17:00 +2°C° 0 mm 2 m/S 646 mmHg 75%
    18:00 -1°C° 0 mm 2 m/S 646 mmHg 77%
    19:00 -1°C° 0 mm 2 m/S 646 mmHg 77%
    20:00 -2°C° 0 mm 2 m/S 646 mmHg 77%
    21:00 -2°C° 0 mm 2 m/S 646 mmHg 77%
    22:00 -3°C° 0 mm 2 m/S 646 mmHg 76%
    23:00 -3°C° 0 mm 2 m/S 646 mmHg 75%
    Mehr zeigen